Weather in Tovarkovo

Russia / Kaluga Oblast     54°40′38″N   35°56′33″E
temp.,
°C
wind,
m/s
gust,
m/s
humid.,
%
clouds,
%
prec.,
mm/h
press.,
hPa
HPBL,
m
23 september, thu
thu2300:00+6ene259775 0.1 1013178
03:00+7ene259779 0.1 1013174
06:00+7e2598100 1.1 1012167
09:00+8ese238798 2.3 1012335
12:00+10ese2380100 0.4 1012580
15:00+10s3483100 1.3 1011435
18:00+9s2285100 0.4 101035
21:00+7sw119245 0.5 101012
24 september, fri
fri2400:00+6wsw3696100 0.1 1009339
03:00+6s3792100 0.1 1007404
06:00+5s41191100 0.0 1005753
09:00+6sse61283100 0.0 10031137
12:00+8sse71172100 0.0 10011215
15:00+6sse71491100 0.8 9991186
18:00+6se61293100 1.6 999884
21:00+7sse51095100 2.1 999675
25 september, sat
sat2500:00+7sse3695100 0.1 1000403
03:00+6ese239768 0.1 100165
06:00+7se229771 0.0 100273
09:00+8ssw128996 0.0 1004390
12:00+11ssw227996 0.0 1005669
15:00+12sw227129 0.1 1006797
18:00+10w248191 0.4 100793
21:00+8wsw2290100 0.4 100831
26 september, sun
sun2600:00+8w229295 0.0 100864
03:00+8w1295100 0.4 100871
06:00+8nne1197100 1.9 100959
09:00+7nnw2596100 5.3 1010235
12:00+8nw4793100 0.8 1011459
15:00+8nnw5992100 1.1 1013609
18:00+8nnw4109099 0.0 1015566
21:00+8nnw41093100 0.1 1017450
27 september, mon
mon2700:00+7n3996100 0.1 1018313
03:00+7n499362 0.1 1020334
06:00+6n3995100 0.0 1021314
09:00+8n4889100 0.0 1022450
12:00+9nne4684100 0.0 1023650
15:00+11nne5673100 0.1 1023996
18:00+8nne4989100 0.1 1025559
21:00+8ne4890100 0.2 1026587